Nantucket, MA

4:36 PM EDT on June 25, 2017 (GMT -0400)
Nantucket Memorial

Weather History for KACK - December, 2012

Change the Weather History Date:

Wednesday, December 26, 2012

  Actual Average Record
Temperature  
Mean Temperature 38 °F -  
Max Temperature 41 °F 41 °F 57 °F (2015)
Min Temperature 34 °F 26 °F 1 °F (1980)
Degree Days  
Heating Degree Days 28    
Moisture  
Dew Point 32 °F    
Average Humidity 78    
Maximum Humidity 93    
Minimum Humidity 65    
Precipitation  
Precipitation 0.23 in - - ()
Sea Level Pressure  
Sea Level Pressure 30.15 in    
Wind  
Wind Speed 12 mph (NE)    
Max Wind Speed 28 mph    
Max Gust Speed 39 mph    
Visibility 9 miles    
Events Rain    
Averages and records for this station are not official NWS values.
T = Trace of Precipitation, MM = Missing Value Source: NWS Daily Summary

Daily Weather History Graph

Daily Weather History Graph

Search for Another Location

Airport or City:

Trip Planner

Search our weather history database for the weather conditions in past years. The results will help you decide how hot, cold, wet, or windy it might be!

Date:

Astronomy

Dec. 26, 2012 Rise Set
Actual Time 7:04 AM EST 4:17 PM EST
Civil Twilight 6:33 AM EST 4:48 PM EST
Nautical Twilight 5:58 AM EST 5:23 PM EST
Astronomical Twilight 5:25 AM EST 5:57 PM EST
Moon 3:08 PM EST (12/26) 5:25 AM EST (12/26)
Length of Visible Light 10h 15m
Length of Day
9h 12m
Waxing Gibbous, 97% of the Moon is Illuminated
Dec 26
Waxing Gibbous
Dec 28
Full
Jan 4
Last Quarter
Jan 11
New
Jan 18
First Quarter

Hourly Weather History & Observations

Time (EST) Temp. Windchill Dew Point Humidity Pressure Visibility Wind Dir Wind Speed Gust Speed Precip Events Conditions
12:53 AM 37.0 °F 30.4 °F 34.0 °F 89% 30.18 in 10.0 mi NNW 9.2 mph - N/A   Mostly Cloudy
1:53 AM 37.9 °F 30.5 °F 30.9 °F 76% 30.21 in 10.0 mi North 11.5 mph - N/A   Overcast
2:53 AM 37.0 °F 29.8 °F 28.9 °F 73% 30.22 in 10.0 mi North 10.4 mph - N/A   Overcast
3:53 AM 36.0 °F 28.0 °F 28.0 °F 73% 30.23 in 10.0 mi North 11.5 mph - N/A   Clear
4:53 AM 35.1 °F 25.5 °F 27.0 °F 72% 30.22 in 10.0 mi North 15.0 mph - N/A   Clear
5:53 AM 35.1 °F 26.4 °F 27.0 °F 72% 30.22 in 10.0 mi North 12.7 mph - N/A   Clear
6:53 AM 34.0 °F 27.2 °F 28.0 °F 79% 30.25 in 10.0 mi North 8.1 mph - N/A   Clear
7:53 AM 34.0 °F 27.2 °F 28.9 °F 82% 30.26 in 10.0 mi North 8.1 mph - N/A   Scattered Clouds
8:03 AM 35.6 °F 29.9 °F 30.2 °F 81% 30.26 in 10.0 mi NNE 6.9 mph - N/A   Mostly Cloudy
8:12 AM 35.6 °F 29.9 °F 28.4 °F 75% 30.26 in 10.0 mi NNE 6.9 mph - N/A   Scattered Clouds
8:23 AM 35.6 °F 31.7 °F 30.2 °F 81% 30.26 in 10.0 mi NNE 4.6 mph - N/A   Mostly Cloudy
8:35 AM 35.6 °F 29.9 °F 28.4 °F 75% 30.26 in 10.0 mi NNE 6.9 mph - N/A   Scattered Clouds
8:53 AM 39.0 °F 32.8 °F 30.0 °F 70% 30.27 in 10.0 mi NE 9.2 mph - N/A   Scattered Clouds
9:28 AM 37.4 °F 30.8 °F 28.4 °F 70% 30.28 in 10.0 mi NE 9.2 mph - N/A   Mostly Cloudy
9:53 AM 39.0 °F 35.7 °F 28.9 °F 67% 30.28 in 10.0 mi ENE 4.6 mph - N/A   Mostly Cloudy
10:53 AM 39.0 °F 31.8 °F 28.9 °F 67% 30.25 in 10.0 mi ENE 11.5 mph - N/A   Mostly Cloudy
11:53 AM 39.9 °F 31.8 °F 28.9 °F 65% 30.20 in 10.0 mi NE 15.0 mph 19.6 mph N/A   Mostly Cloudy
12:53 PM 39.0 °F 32.3 °F 28.9 °F 67% 30.20 in 10.0 mi ENE 10.4 mph - N/A   Mostly Cloudy
1:53 PM 39.0 °F 31.0 °F 28.9 °F 67% 30.20 in 10.0 mi ENE 13.8 mph 19.6 mph N/A   Mostly Cloudy
2:53 PM 39.0 °F 31.8 °F 30.0 °F 70% 30.20 in 10.0 mi ENE 11.5 mph - N/A   Overcast
3:53 PM 37.9 °F 30.0 °F 30.0 °F 73% 30.17 in 10.0 mi ENE 12.7 mph - N/A   Mostly Cloudy
4:53 PM 39.0 °F 31.8 °F 30.9 °F 73% 30.15 in 10.0 mi East 11.5 mph 21.9 mph N/A   Overcast
5:53 PM 39.9 °F 32.5 °F 32.0 °F 73% 30.13 in 10.0 mi East 12.7 mph 21.9 mph N/A   Overcast
6:53 PM 39.9 °F 30.8 °F 33.1 °F 77% 30.11 in 10.0 mi East 18.4 mph 25.3 mph N/A   Overcast
7:53 PM 39.0 °F 29.9 °F 35.1 °F 86% 30.06 in 8.0 mi East 17.3 mph 27.6 mph 0.02 in Rain Light Rain
8:26 PM 39.2 °F 29.0 °F 35.6 °F 87% 30.04 in 7.0 mi East 21.9 mph 31.1 mph 0.03 in Rain Rain
8:53 PM 39.0 °F 29.0 °F 36.0 °F 89% 30.01 in 6.0 mi East 20.7 mph 33.4 mph 0.09 in Rain Rain
9:53 PM 39.9 °F 30.0 °F 37.0 °F 89% 29.96 in 7.0 mi East 21.9 mph 36.8 mph 0.04 in Rain Light Rain
10:26 PM 39.2 °F 27.8 °F 37.4 °F 93% 29.93 in 10.0 mi East 27.6 mph 34.5 mph 0.01 in Rain Light Rain
10:33 PM 39.2 °F 28.5 °F 37.4 °F 93% 29.93 in 9.0 mi East 24.2 mph 39.1 mph 0.01 in Rain Light Rain
10:53 PM 39.9 °F 29.2 °F 37.9 °F 93% 29.92 in 7.0 mi East 25.3 mph 35.7 mph 0.02 in Rain Light Rain
11:44 PM 41.0 °F 31.9 °F 37.4 °F 87% 29.86 in 9.0 mi East 19.6 mph 38.0 mph 0.05 in Rain Light Rain
11:53 PM 41.0 °F 30.7 °F 37.9 °F 89% 29.86 in 8.0 mi East 25.3 mph 35.7 mph 0.06 in Rain Light Rain